Voltar ao catálogo

LEMUR-2 HCS-BAZUS

AtivoCiênciaSSO
NORAD 67388·PAYLOAD·🇺🇸 United States

Lançado Jan 11, 2026 de Vandenberg Space Force Base

Loading…

Próximas Passagens (próximas 24 horas)

TLE

AtualizadoSource: Space-Track

Época: Sep 14, 2026, 10:45 UTC

1 67388U 26004AB  26257.44835305  .00002940  00000-0  30561-3 0  9991
2 67388  97.8080 255.3803 0003636 126.8286 233.3266 14.90660062 36607

Acompanhe LEMUR-2 HCS-BAZUS em tempo real com AllMySat

Download on the App Store